Regional Weather Roundup
Issued by NWS Newport/Morehead, NC

Current Version | Previous Version | Graphics & Text | Print | Product List | Glossary Off
Versions: 1 2 3 4 5 6 7 8 9 10 11 12 13 14 15 16 17 18 19 20 21 22 23 24 25 26 27 28 29 30 31 32 33 34 35 36 37 38 39 40 41 42 43 44 45 46 47 48 49 50
000 ASUS42 KMHX 051924 RWRMHX WEATHER ROUNDUP FOR EASTERN NORTH CAROLINA NATIONAL WEATHER SERVICE NEWPORT/MOREHEAD CITY NC 200 PM EST THU MAR 05 2015 NOTE: "FAIR" INDICATES FEW OR NO CLOUDS BELOW 12,000 FEET WITH NO SIGNIFICANT WEATHER AND/OR OBSTRUCTIONS TO VISIBILITY NCZ015>017-031-032-045>047-102-103-052000- NORTH COAST CITY SKY/WX TMP DP RH WIND PRES REMARKS EDENTON DRIZZLE 37 36 93 NE9G16 30.01F ELIZABETH CITY LGT RAIN 37 36 93 NE20G28 30.01F FOG KITTY HAWK RAIN 37 37 100 N12G22 29.99F MANTEO CLOUDY 37 37 97 N21 30.00F $$ NCZ045>047-081-094-103-104-052000- CENTRAL COAST CITY SKY/WX TMP DP RH WIND PRES REMARKS FRISCO CLOUDY 42 42 100 N12G22 29.97S FOG SWANQUARTER N/A 43 N/A N/A NE14G26 29.94S $$ NCZ095-097-098-100-101-052000- SOUTHERN COAST CITY SKY/WX TMP DP RH WIND PRES REMARKS BEAUFORT FOG 59 59 100 SW17 29.93F VSB 3/4 CEDAR ISLAND N/A 45 N/A N/A N21G32 30.00R JACKSONVILLE MOSUNNY 81 60 48 SW14G30 29.87F PINEY ISLAND N/A N/A N/A N/A MISG 29.95R WILMINGTON MOSUNNY 76 63 64 SW21G31 29.90F $$ NCZ011>013-027>030-043-044-078>080-089-090>093-098-052000- COASTAL PLAIN CITY SKY/WX TMP DP RH WIND PRES REMARKS AHOSKIE LGT RAIN 36 35 95 N12G22 30.08R CLINTON CLOUDY 76 63 64 SW13G24 29.87F ELIZABETHTOWN CLOUDY 77 61 57 SW12G24 29.87F GOLDSBORO LGT RAIN 46 46 100 NE15G23 29.94R GREENVILLE LGT RAIN 41 39 93 NE9 30.01R HAVELOCK MOSUNNY 75 61 61 S16G25 29.90F KENANSVILLE PTSUNNY 78 58 51 SW14G23 29.86F KINSTON CLOUDY 46 45 93 N15 29.95S NEW BERN PTSUNNY 57 45 64 NE20G29 29.93R RICHLANDS PTSUNNY 81 61 50 S16G28 29.86F ROCKY MOUNT RAIN 39 37 92 N16G31 30.04R FOG WASHINGTON DRIZZLE 41 39 92 NE13G20 29.97F WHITEVILLE NOT AVBL $$ AMZ130-135-150-152-154-156-158-170-250-252-270-ANZ085-086-088-633-658-670-052000- MARINE OBSERVATIONS STATION/POSITION TIME TEMP WIND PRES WAVE SWELL AIR SEA DIR/SP/G HT/PER HT/PER (UTC) (F) (DEG/KT/KT) (MB) (FT/S) (FT/S) CHESAPEAKE LIGHT 1900 34 30/ 26/ 30 1017.1 64 E VA BEACH 1850 45 52 20/ 25/ 31 1013.8 8/ 7 3/10 DUCK 1900 35 36 10/ 18/ 23 1015.0 2 E DUCK 1911 36 N/A 6/ 6 10 NE DUCK 1822 38 N/A 7/ 6 OREGON INLET 1900 37 49 350/ 16/ 21 1015.3 HATTERAS CG 1900 50 10/ 20/ 25 1015.4 CAPE LOOKOUT 1800 59 230/ 13/ 18 1014.5 BEAUFORT LAB 1900 58 48 220/ 10/ 13 1012.7 27 SE WRIGHTSVLE NOT AVBL 5 SE WRIGHTSVLE NOT AVBL 225 S CAPE HAT 1850 74 73 220/ 19/ 23 1019.1 7/ 7 3/10 41 SE CHARLESTON 1850 69 68 210/ 23/ 29 1014.3 6/ 7 2/10 $$

USA.gov is the U.S. government's official web portal to all federal, state and local government web resources and services.